Data supplied by UK-AIR on 5/6/2020
All Data GMT hour ending 
Status: R =Ratified P=Provisional,P*=As supplied
,,Newcastle Cradlewell Roadside,,,,,,,,,,,,,,,,,,,,,,,
Date,time,"PM<sub>10</sub> particulate matter (Hourly measured)",status,unit,"Nitric oxide",status,unit,"Nitrogen dioxide",status,unit,"Nitrogen oxides as nitrogen dioxide",status,unit
 
01-01-2019,01:00,10.628,R,ugm-3 (Ref.eq),3.26283,R,ugm-3,8.05268,R,ugm-3,13.05561,R,ugm-3
01-01-2019,02:00,9.662,R,ugm-3 (Ref.eq),,,,,,,,,
01-01-2019,03:00,5.797,R,ugm-3 (Ref.eq),4.41841,R,ugm-3,9.47414,R,ugm-3,16.24894,R,ugm-3
01-01-2019,04:00,4.831,R,ugm-3 (Ref.eq),2.61706,R,ugm-3,5.35551,R,ugm-3,9.36828,R,ugm-3
01-01-2019,05:00,4.831,R,ugm-3 (Ref.eq),2.41313,R,ugm-3,6.56798,R,ugm-3,10.26806,R,ugm-3
01-01-2019,06:00,4.831,R,ugm-3 (Ref.eq),1.93730,R,ugm-3,9.30884,R,ugm-3,12.27933,R,ugm-3
01-01-2019,07:00,17.392,R,ugm-3 (Ref.eq),2.82099,R,ugm-3,20.18028,R,ugm-3,24.50573,R,ugm-3
01-01-2019,08:00,5.797,R,ugm-3 (Ref.eq),3.70467,R,ugm-3,18.87825,R,ugm-3,24.55866,R,ugm-3
01-01-2019,09:00,8.696,R,ugm-3 (Ref.eq),4.79228,R,ugm-3,12.81757,R,ugm-3,20.16562,R,ugm-3
01-01-2019,10:00,8.696,R,ugm-3 (Ref.eq),1.80135,R,ugm-3,11.74028,R,ugm-3,14.50231,R,ugm-3
01-01-2019,11:00,10.628,R,ugm-3 (Ref.eq),3.53473,R,ugm-3,13.47551,R,ugm-3,18.89535,R,ugm-3
01-01-2019,12:00,9.662,R,ugm-3 (Ref.eq),3.43277,R,ugm-3,9.76809,R,ugm-3,15.03159,R,ugm-3
01-01-2019,13:00,9.662,R,ugm-3 (Ref.eq),7.74921,R,ugm-3,15.53482,R,ugm-3,27.41678,R,ugm-3
01-01-2019,14:00,5.797,R,ugm-3 (Ref.eq),3.09289,R,ugm-3,11.18901,R,ugm-3,15.93137,R,ugm-3
01-01-2019,15:00,4.831,R,ugm-3 (Ref.eq),1.15559,R,ugm-3,6.48492,R,ugm-3,8.25679,R,ugm-3
01-01-2019,16:00,8.696,R,ugm-3 (Ref.eq),1.25755,R,ugm-3,6.91079,R,ugm-3,8.83900,R,ugm-3
01-01-2019,17:00,9.662,R,ugm-3 (Ref.eq),1.73338,R,ugm-3,10.94473,R,ugm-3,13.60253,R,ugm-3
01-01-2019,18:00,7.730,R,ugm-3 (Ref.eq),1.66540,R,ugm-3,10.73139,R,ugm-3,13.28496,R,ugm-3
01-01-2019,19:00,12.561,R,ugm-3 (Ref.eq),5.50602,R,ugm-3,22.25588,R,ugm-3,30.69832,R,ugm-3
01-01-2019,20:00,14.493,R,ugm-3 (Ref.eq),1.66540,R,ugm-3,11.68409,R,ugm-3,14.23767,R,ugm-3
01-01-2019,21:00,19.324,R,ugm-3 (Ref.eq),1.76736,R,ugm-3,10.57504,R,ugm-3,13.28496,R,ugm-3
01-01-2019,22:00,11.594,R,ugm-3 (Ref.eq),0.98565,R,ugm-3,7.16891,R,ugm-3,8.68022,R,ugm-3
01-01-2019,23:00,12.561,R,ugm-3 (Ref.eq),0.81571,R,ugm-3,6.63556,R,ugm-3,7.88629,R,ugm-3
01-01-2019,24:00,13.527,R,ugm-3 (Ref.eq),0.50982,R,ugm-3,4.19354,R,ugm-3,4.97525,R,ugm-3
02-01-2019,01:00,19.324,R,ugm-3 (Ref.eq),0.45323,R,ugm-3,4.73520,R,ugm-3,5.43014,R,ugm-3
02-01-2019,02:00,10.628,R,ugm-3 (Ref.eq),0.64585,R,ugm-3,4.98639,R,ugm-3,5.97668,R,ugm-3
02-01-2019,03:00,13.527,R,ugm-3 (Ref.eq),0.91779,R,ugm-3,4.51653,R,ugm-3,5.92379,R,ugm-3
02-01-2019,04:00,10.628,R,ugm-3 (Ref.eq),0.64585,R,ugm-3,3.55833,R,ugm-3,4.54863,R,ugm-3
02-01-2019,05:00,9.662,R,ugm-3 (Ref.eq),1.49566,R,ugm-3,7.12128,R,ugm-3,9.41460,R,ugm-3
02-01-2019,06:00,13.527,R,ugm-3 (Ref.eq),2.03954,R,ugm-3,7.71541,R,ugm-3,10.84266,R,ugm-3
02-01-2019,07:00,16.425,R,ugm-3 (Ref.eq),3.87512,R,ugm-3,12.94032,R,ugm-3,18.88209,R,ugm-3
02-01-2019,08:00,20.290,R,ugm-3 (Ref.eq),9.82377,R,ugm-3,27.03833,R,ugm-3,42.10123,R,ugm-3
02-01-2019,09:00,10.628,R,ugm-3 (Ref.eq),9.82377,R,ugm-3,30.15890,R,ugm-3,45.22180,R,ugm-3
02-01-2019,10:00,14.493,R,ugm-3 (Ref.eq),10.40164,R,ugm-3,29.85465,R,ugm-3,45.80360,R,ugm-3
02-01-2019,11:00,12.561,R,ugm-3 (Ref.eq),6.90043,R,ugm-3,16.97569,R,ugm-3,27.55621,R,ugm-3
02-01-2019,12:00,13.527,R,ugm-3 (Ref.eq),14.00482,R,ugm-3,20.94483,R,ugm-3,42.41858,R,ugm-3
02-01-2019,13:00,16.425,R,ugm-3 (Ref.eq),19.03567,R,ugm-3,24.33806,R,ugm-3,53.52569,R,ugm-3
02-01-2019,14:00,14.493,R,ugm-3 (Ref.eq),12.91706,R,ugm-3,28.80094,R,ugm-3,48.60682,R,ugm-3
02-01-2019,15:00,10.628,R,ugm-3 (Ref.eq),4.96287,R,ugm-3,17.56648,R,ugm-3,25.17611,R,ugm-3
02-01-2019,16:00,14.493,R,ugm-3 (Ref.eq),10.09571,R,ugm-3,24.24127,R,ugm-3,39.72114,R,ugm-3
02-01-2019,17:00,13.527,R,ugm-3 (Ref.eq),11.79532,R,ugm-3,31.89609,R,ugm-3,49.98199,R,ugm-3
02-01-2019,18:00,14.493,R,ugm-3 (Ref.eq),10.12970,R,ugm-3,35.50783,R,ugm-3,51.03981,R,ugm-3
02-01-2019,19:00,11.594,R,ugm-3 (Ref.eq),9.34788,R,ugm-3,32.42243,R,ugm-3,46.75564,R,ugm-3
02-01-2019,20:00,11.594,R,ugm-3 (Ref.eq),6.35656,R,ugm-3,28.38783,R,ugm-3,38.13441,R,ugm-3
02-01-2019,21:00,12.561,R,ugm-3 (Ref.eq),7.78423,R,ugm-3,22.33771,R,ugm-3,34.27337,R,ugm-3
02-01-2019,22:00,21.256,R,ugm-3 (Ref.eq),17.70997,R,ugm-3,41.12736,R,ugm-3,68.28228,R,ugm-3
02-01-2019,23:00,19.324,R,ugm-3 (Ref.eq),18.72974,R,ugm-3,60.13834,R,ugm-3,88.85687,R,ugm-3
02-01-2019,24:00,17.392,R,ugm-3 (Ref.eq),7.71625,R,ugm-3,29.58224,R,ugm-3,41.41365,R,ugm-3
03-01-2019,01:00,10.628,R,ugm-3 (Ref.eq),3.71698,R,ugm-3,18.26112,R,ugm-3,23.96041,R,ugm-3
03-01-2019,02:00,12.561,R,ugm-3 (Ref.eq),2.03981,R,ugm-3,15.37119,R,ugm-3,18.49885,R,ugm-3
03-01-2019,03:00,7.730,R,ugm-3 (Ref.eq),4.24960,R,ugm-3,16.47547,R,ugm-3,22.99143,R,ugm-3
03-01-2019,04:00,6.763,R,ugm-3 (Ref.eq),5.16751,R,ugm-3,13.74667,R,ugm-3,21.67008,R,ugm-3
03-01-2019,05:00,6.763,R,ugm-3 (Ref.eq),1.90382,R,ugm-3,14.52262,R,ugm-3,17.44177,R,ugm-3
03-01-2019,06:00,4.831,R,ugm-3 (Ref.eq),6.83335,R,ugm-3,21.28750,R,ugm-3,31.76516,R,ugm-3
03-01-2019,07:00,12.561,R,ugm-3 (Ref.eq),45.38569,R,ugm-3,51.86772,R,ugm-3,121.45814,R,ugm-3
03-01-2019,08:00,28.986,R,ugm-3 (Ref.eq),155.50125,R,ugm-3,119.86432,R,ugm-3,358.29624,R,ugm-3
03-01-2019,09:00,38.648,R,ugm-3 (Ref.eq),218.46327,R,ugm-3,123.74621,R,ugm-3,458.71855,R,ugm-3
03-01-2019,10:00,42.513,R,ugm-3 (Ref.eq),181.67876,R,ugm-3,104.83160,R,ugm-3,383.40182,R,ugm-3
03-01-2019,11:00,49.276,R,ugm-3 (Ref.eq),201.77085,R,ugm-3,121.75118,R,ugm-3,431.12884,R,ugm-3
03-01-2019,12:00,45.411,R,ugm-3 (Ref.eq),201.63487,R,ugm-3,140.51139,R,ugm-3,449.68054,R,ugm-3
03-01-2019,13:00,37.682,R,ugm-3 (Ref.eq),133.57333,R,ugm-3,104.06831,R,ugm-3,308.87789,R,ugm-3
03-01-2019,14:00,29.952,R,ugm-3 (Ref.eq),40.62615,R,ugm-3,62.97107,R,ugm-3,125.26362,R,ugm-3
03-01-2019,15:00,24.155,R,ugm-3 (Ref.eq),40.42216,R,ugm-3,62.86100,R,ugm-3,124.84079,R,ugm-3
03-01-2019,16:00,24.155,R,ugm-3 (Ref.eq),15.70651,R,ugm-3,52.44939,R,ugm-3,76.53237,R,ugm-3
03-01-2019,17:00,26.087,R,ugm-3 (Ref.eq),32.77289,R,ugm-3,59.79065,R,ugm-3,110.04171,R,ugm-3
03-01-2019,18:00,18.358,R,ugm-3 (Ref.eq),16.25046,R,ugm-3,61.39331,R,ugm-3,86.31033,R,ugm-3
03-01-2019,19:00,16.425,R,ugm-3 (Ref.eq),12.54481,R,ugm-3,46.88506,R,ugm-3,66.12016,R,ugm-3
03-01-2019,20:00,19.324,R,ugm-3 (Ref.eq),9.58709,R,ugm-3,37.09677,R,ugm-3,51.79677,R,ugm-3
03-01-2019,21:00,18.358,R,ugm-3 (Ref.eq),6.15342,R,ugm-3,38.66190,R,ugm-3,48.09700,R,ugm-3
03-01-2019,22:00,21.256,R,ugm-3 (Ref.eq),39.33427,R,ugm-3,59.82509,R,ugm-3,120.13680,R,ugm-3
03-01-2019,23:00,31.885,R,ugm-3 (Ref.eq),81.35428,R,ugm-3,86.62105,R,ugm-3,211.36254,R,ugm-3
03-01-2019,24:00,25.121,R,ugm-3 (Ref.eq),42.22399,R,ugm-3,71.51467,R,ugm-3,136.25722,R,ugm-3
04-01-2019,01:00,20.290,R,ugm-3 (Ref.eq),10.33639,R,ugm-3,42.74242,R,ugm-3,58.59133,R,ugm-3
04-01-2019,02:00,17.392,R,ugm-3 (Ref.eq),5.37220,R,ugm-3,26.99148,R,ugm-3,35.22874,R,ugm-3
04-01-2019,03:00,19.324,R,ugm-3 (Ref.eq),3.23012,R,ugm-3,15.43446,R,ugm-3,20.38725,R,ugm-3
04-01-2019,04:00,16.425,R,ugm-3 (Ref.eq),5.44020,R,ugm-3,16.48232,R,ugm-3,24.82385,R,ugm-3
04-01-2019,05:00,19.324,R,ugm-3 (Ref.eq),12.54647,R,ugm-3,27.55794,R,ugm-3,46.79560,R,ugm-3
04-01-2019,06:00,27.054,R,ugm-3 (Ref.eq),18.66670,R,ugm-3,30.26875,R,ugm-3,58.89062,R,ugm-3
04-01-2019,07:00,30.918,R,ugm-3 (Ref.eq),44.57567,R,ugm-3,49.53846,R,ugm-3,117.88688,R,ugm-3
04-01-2019,08:00,36.716,R,ugm-3 (Ref.eq),77.96493,R,ugm-3,71.54627,R,ugm-3,191.09082,R,ugm-3
04-01-2019,09:00,30.918,R,ugm-3 (Ref.eq),14.41654,R,ugm-3,38.63415,R,ugm-3,60.73921,R,ugm-3
04-01-2019,10:00,28.986,R,ugm-3 (Ref.eq),46.00373,R,ugm-3,54.53188,R,ugm-3,125.06995,R,ugm-3
04-01-2019,11:00,29.952,R,ugm-3 (Ref.eq),21.42080,R,ugm-3,35.55285,R,ugm-3,68.39763,R,ugm-3
04-01-2019,12:00,34.783,R,ugm-3 (Ref.eq),23.39288,R,ugm-3,32.58186,R,ugm-3,68.45044,R,ugm-3
04-01-2019,13:00,33.817,R,ugm-3 (Ref.eq),29.58111,R,ugm-3,35.50530,R,ugm-3,80.86237,R,ugm-3
04-01-2019,14:00,23.189,R,ugm-3 (Ref.eq),17.03464,R,ugm-3,31.29234,R,ugm-3,57.41175,R,ugm-3
04-01-2019,15:00,27.054,R,ugm-3 (Ref.eq),25.77297,R,ugm-3,41.39719,R,ugm-3,80.91519,R,ugm-3
04-01-2019,16:00,38.648,R,ugm-3 (Ref.eq),55.21807,R,ugm-3,57.72729,R,ugm-3,142.39383,R,ugm-3
04-01-2019,17:00,24.155,R,ugm-3 (Ref.eq),30.05713,R,ugm-3,47.71551,R,ugm-3,93.80246,R,ugm-3
04-01-2019,18:00,16.425,R,ugm-3 (Ref.eq),16.79663,R,ugm-3,31.07630,R,ugm-3,56.83077,R,ugm-3
04-01-2019,19:00,13.527,R,ugm-3 (Ref.eq),4.52217,R,ugm-3,19.52727,R,ugm-3,26.46117,R,ugm-3
04-01-2019,20:00,11.594,R,ugm-3 (Ref.eq),10.26839,R,ugm-3,24.44887,R,ugm-3,40.19351,R,ugm-3
04-01-2019,21:00,9.662,R,ugm-3 (Ref.eq),3.60414,R,ugm-3,15.75887,R,ugm-3,21.28513,R,ugm-3
04-01-2019,22:00,11.594,R,ugm-3 (Ref.eq),3.09412,R,ugm-3,12.63245,R,ugm-3,17.37669,R,ugm-3
04-01-2019,23:00,9.662,R,ugm-3 (Ref.eq),2.04008,R,ugm-3,10.23455,R,ugm-3,13.36263,R,ugm-3
04-01-2019,24:00,7.730,R,ugm-3 (Ref.eq),1.83607,R,ugm-3,6.95582,R,ugm-3,9.77109,R,ugm-3
05-01-2019,01:00,5.797,R,ugm-3 (Ref.eq),1.40557,R,ugm-3,6.07843,R,ugm-3,8.23361,R,ugm-3
05-01-2019,02:00,5.797,R,ugm-3 (Ref.eq),0.95216,R,ugm-3,4.94396,R,ugm-3,6.40392,R,ugm-3
05-01-2019,03:00,10.628,R,ugm-3 (Ref.eq),0.61210,R,ugm-3,4.60331,R,ugm-3,5.54185,R,ugm-3
05-01-2019,04:00,9.662,R,ugm-3 (Ref.eq),1.08818,R,ugm-3,4.87614,R,ugm-3,6.54467,R,ugm-3
05-01-2019,05:00,7.730,R,ugm-3 (Ref.eq),1.39424,R,ugm-3,4.67076,R,ugm-3,6.80856,R,ugm-3
05-01-2019,06:00,8.696,R,ugm-3 (Ref.eq),0.74813,R,ugm-3,4.34196,R,ugm-3,5.48907,R,ugm-3
05-01-2019,07:00,17.392,R,ugm-3 (Ref.eq),1.80231,R,ugm-3,6.68404,R,ugm-3,9.44754,R,ugm-3
05-01-2019,08:00,15.459,R,ugm-3 (Ref.eq),6.73314,R,ugm-3,15.43241,R,ugm-3,25.75642,R,ugm-3
05-01-2019,09:00,15.459,R,ugm-3 (Ref.eq),8.46744,R,ugm-3,18.31505,R,ugm-3,31.29828,R,ugm-3
05-01-2019,10:00,12.561,R,ugm-3 (Ref.eq),5.84899,R,ugm-3,16.94643,R,ugm-3,25.91476,R,ugm-3
05-01-2019,11:00,8.696,R,ugm-3 (Ref.eq),9.82767,R,ugm-3,20.29342,R,ugm-3,35.36230,R,ugm-3
05-01-2019,12:00,14.493,R,ugm-3 (Ref.eq),15.06456,R,ugm-3,23.18900,R,ugm-3,46.28767,R,ugm-3
05-01-2019,13:00,13.527,R,ugm-3 (Ref.eq),19.58733,R,ugm-3,31.45469,R,ugm-3,61.48818,R,ugm-3
05-01-2019,14:00,20.290,R,ugm-3 (Ref.eq),26.49050,R,ugm-3,34.32876,R,ugm-3,74.94697,R,ugm-3
05-01-2019,15:00,31.885,R,ugm-3 (Ref.eq),102.69745,R,ugm-3,92.49674,R,ugm-3,249.96396,R,ugm-3
05-01-2019,16:00,40.580,R,ugm-3 (Ref.eq),174.85771,R,ugm-3,128.15747,R,ugm-3,396.26889,R,ugm-3
05-01-2019,17:00,25.121,R,ugm-3 (Ref.eq),79.33548,R,ugm-3,84.08866,R,ugm-3,205.73470,R,ugm-3
05-01-2019,18:00,35.749,R,ugm-3 (Ref.eq),74.77871,R,ugm-3,82.68367,R,ugm-3,197.34275,R,ugm-3
05-01-2019,19:00,34.783,R,ugm-3 (Ref.eq),53.59311,R,ugm-3,68.93291,R,ugm-3,151.10786,R,ugm-3
05-01-2019,20:00,24.155,R,ugm-3 (Ref.eq),22.95390,R,ugm-3,49.56847,R,ugm-3,84.76396,R,ugm-3
05-01-2019,21:00,20.290,R,ugm-3 (Ref.eq),30.09511,R,ugm-3,51.28586,R,ugm-3,97.43106,R,ugm-3
05-01-2019,22:00,15.459,R,ugm-3 (Ref.eq),7.71931,R,ugm-3,24.84568,R,ugm-3,36.68179,R,ugm-3
05-01-2019,23:00,15.459,R,ugm-3 (Ref.eq),3.80865,R,ugm-3,14.69140,R,ugm-3,20.53125,R,ugm-3
05-01-2019,24:00,14.493,R,ugm-3 (Ref.eq),4.72680,R,ugm-3,12.59745,R,ugm-3,19.84511,R,ugm-3
06-01-2019,01:00,12.561,R,ugm-3 (Ref.eq),2.49409,R,ugm-3,11.50625,R,ugm-3,15.33046,R,ugm-3
06-01-2019,02:00,16.425,R,ugm-3 (Ref.eq),1.42843,R,ugm-3,6.93421,R,ugm-3,9.12444,R,ugm-3
06-01-2019,03:00,14.493,R,ugm-3 (Ref.eq),1.15635,R,ugm-3,6.24380,R,ugm-3,8.01685,R,ugm-3
06-01-2019,04:00,19.324,R,ugm-3 (Ref.eq),1.93859,R,ugm-3,7.31231,R,ugm-3,10.28477,R,ugm-3
06-01-2019,05:00,21.256,R,ugm-3 (Ref.eq),1.29239,R,ugm-3,6.24618,R,ugm-3,8.22782,R,ugm-3
06-01-2019,06:00,21.256,R,ugm-3 (Ref.eq),0.88427,R,ugm-3,5.60614,R,ugm-3,6.96200,R,ugm-3
06-01-2019,07:00,14.493,R,ugm-3 (Ref.eq),1.56447,R,ugm-3,6.25093,R,ugm-3,8.64976,R,ugm-3
06-01-2019,08:00,18.358,R,ugm-3 (Ref.eq),2.58478,R,ugm-3,10.27717,R,ugm-3,14.24045,R,ugm-3
06-01-2019,09:00,24.155,R,ugm-3 (Ref.eq),2.82285,R,ugm-3,12.33829,R,ugm-3,16.66660,R,ugm-3
06-01-2019,10:00,22.223,R,ugm-3 (Ref.eq),2.58478,R,ugm-3,11.54299,R,ugm-3,15.50627,R,ugm-3
06-01-2019,11:00,23.189,R,ugm-3 (Ref.eq),7.44825,R,ugm-3,17.53509,R,ugm-3,28.95558,R,ugm-3
06-01-2019,12:00,9.662,R,ugm-3 (Ref.eq),7.82237,R,ugm-3,14.74628,R,ugm-3,26.74040,R,ugm-3
06-01-2019,13:00,5.797,R,ugm-3 (Ref.eq),6.63201,R,ugm-3,13.98709,R,ugm-3,24.15602,R,ugm-3
06-01-2019,14:00,2.899,R,ugm-3 (Ref.eq),10.16907,R,ugm-3,17.26616,R,ugm-3,32.85852,R,ugm-3
06-01-2019,15:00,5.797,R,ugm-3 (Ref.eq),11.83558,R,ugm-3,28.47666,R,ugm-3,46.62429,R,ugm-3
06-01-2019,16:00,5.797,R,ugm-3 (Ref.eq),10.03303,R,ugm-3,20.90301,R,ugm-3,36.28678,R,ugm-3
06-01-2019,17:00,4.831,R,ugm-3 (Ref.eq),31.73159,R,ugm-3,42.90639,R,ugm-3,91.56082,R,ugm-3
06-01-2019,18:00,9.662,R,ugm-3 (Ref.eq),24.04527,R,ugm-3,40.39873,R,ugm-3,77.26762,R,ugm-3
06-01-2019,19:00,18.358,R,ugm-3 (Ref.eq),103.83338,R,ugm-3,76.44410,R,ugm-3,235.65307,R,ugm-3
06-01-2019,20:00,20.290,R,ugm-3 (Ref.eq),112.33595,R,ugm-3,82.49976,R,ugm-3,254.74582,R,ugm-3
06-01-2019,21:00,27.054,R,ugm-3 (Ref.eq),104.68364,R,ugm-3,80.67834,R,ugm-3,241.19102,R,ugm-3
06-01-2019,22:00,28.020,R,ugm-3 (Ref.eq),109.98925,R,ugm-3,76.34065,R,ugm-3,244.98847,R,ugm-3
06-01-2019,23:00,24.155,R,ugm-3 (Ref.eq),74.14241,R,ugm-3,60.31375,R,ugm-3,173.99720,R,ugm-3
06-01-2019,24:00,12.561,R,ugm-3 (Ref.eq),46.79815,R,ugm-3,59.51969,R,ugm-3,131.27585,R,ugm-3
07-01-2019,01:00,10.628,R,ugm-3 (Ref.eq),38.59544,R,ugm-3,53.18876,R,ugm-3,112.36761,R,ugm-3
07-01-2019,02:00,6.763,R,ugm-3 (Ref.eq),5.44237,R,ugm-3,24.47296,R,ugm-3,32.81781,R,ugm-3
07-01-2019,03:00,7.730,R,ugm-3 (Ref.eq),6.73493,R,ugm-3,21.71805,R,ugm-3,32.04480,R,ugm-3
07-01-2019,04:00,5.797,R,ugm-3 (Ref.eq),9.25202,R,ugm-3,25.29001,R,ugm-3,39.47624,R,ugm-3
07-01-2019,05:00,3.865,R,ugm-3 (Ref.eq),8.43567,R,ugm-3,22.16720,R,ugm-3,35.10170,R,ugm-3
07-01-2019,06:00,13.527,R,ugm-3 (Ref.eq),10.95276,R,ugm-3,23.15659,R,ugm-3,39.95059,R,ugm-3
07-01-2019,07:00,12.561,R,ugm-3 (Ref.eq),67.28124,R,ugm-3,65.17747,R,ugm-3,168.34060,R,ugm-3
07-01-2019,08:00,6.763,R,ugm-3 (Ref.eq),50.92013,R,ugm-3,53.26506,R,ugm-3,131.34150,R,ugm-3
07-01-2019,09:00,5.797,R,ugm-3 (Ref.eq),47.96084,R,ugm-3,57.01199,R,ugm-3,130.55092,R,ugm-3
07-01-2019,10:00,10.628,R,ugm-3 (Ref.eq),45.57981,R,ugm-3,55.49775,R,ugm-3,125.38581,R,ugm-3
07-01-2019,11:00,10.628,R,ugm-3 (Ref.eq),35.64749,R,ugm-3,52.96541,R,ugm-3,107.62414,R,ugm-3
07-01-2019,12:00,8.696,R,ugm-3 (Ref.eq),24.69473,R,ugm-3,32.49679,R,ugm-3,70.36152,R,ugm-3
07-01-2019,13:00,5.797,R,ugm-3 (Ref.eq),12.95963,R,ugm-3,23.24174,R,ugm-3,43.11290,R,ugm-3
07-01-2019,14:00,6.763,R,ugm-3 (Ref.eq),7.04106,R,ugm-3,11.44548,R,ugm-3,22.24162,R,ugm-3
07-01-2019,15:00,8.696,R,ugm-3 (Ref.eq),5.88456,R,ugm-3,10.00374,R,ugm-3,19.02660,R,ugm-3
07-01-2019,16:00,11.594,R,ugm-3 (Ref.eq),9.11596,R,ugm-3,17.96177,R,ugm-3,31.93939,R,ugm-3
07-01-2019,17:00,10.628,R,ugm-3 (Ref.eq),8.06150,R,ugm-3,17.78661,R,ugm-3,30.14741,R,ugm-3
07-01-2019,18:00,13.527,R,ugm-3 (Ref.eq),4.76207,R,ugm-3,11.56675,R,ugm-3,18.86848,R,ugm-3
07-01-2019,19:00,14.493,R,ugm-3 (Ref.eq),7.24515,R,ugm-3,13.97863,R,ugm-3,25.08770,R,ugm-3
07-01-2019,20:00,13.527,R,ugm-3 (Ref.eq),6.15668,R,ugm-3,13.11775,R,ugm-3,22.55785,R,ugm-3
07-01-2019,21:00,8.696,R,ugm-3 (Ref.eq),2.61914,R,ugm-3,7.68461,R,ugm-3,11.70057,R,ugm-3
07-01-2019,22:00,10.628,R,ugm-3 (Ref.eq),1.73475,R,ugm-3,5.19316,R,ugm-3,7.85308,R,ugm-3
07-01-2019,23:00,13.527,R,ugm-3 (Ref.eq),2.51709,R,ugm-3,4.73147,R,ugm-3,8.59096,R,ugm-3
07-01-2019,24:00,11.594,R,ugm-3 (Ref.eq),1.56468,R,ugm-3,4.18902,R,ugm-3,6.58816,R,ugm-3
08-01-2019,01:00,8.696,R,ugm-3 (Ref.eq),1.27005,R,ugm-3,2.75763,R,ugm-3,4.70502,R,ugm-3
08-01-2019,02:00,8.696,R,ugm-3 (Ref.eq),0.68039,R,ugm-3,1.85350,R,ugm-3,2.89675,R,ugm-3
08-01-2019,03:00,6.763,R,ugm-3 (Ref.eq),0.47627,R,ugm-3,1.53446,R,ugm-3,2.26473,R,ugm-3
08-01-2019,04:00,5.797,R,ugm-3 (Ref.eq),0.37421,R,ugm-3,1.42761,R,ugm-3,2.00139,R,ugm-3
08-01-2019,05:00,6.763,R,ugm-3 (Ref.eq),1.08862,R,ugm-3,2.86027,R,ugm-3,4.52946,R,ugm-3
08-01-2019,06:00,8.696,R,ugm-3 (Ref.eq),1.19068,R,ugm-3,3.28313,R,ugm-3,5.10881,R,ugm-3
08-01-2019,07:00,10.628,R,ugm-3 (Ref.eq),4.38849,R,ugm-3,10.75689,R,ugm-3,17.48581,R,ugm-3
08-01-2019,08:00,16.425,R,ugm-3 (Ref.eq),30.00501,R,ugm-3,33.36381,R,ugm-3,79.37084,R,ugm-3
08-01-2019,09:00,14.493,R,ugm-3 (Ref.eq),11.29440,R,ugm-3,26.66003,R,ugm-3,43.97787,R,ugm-3
08-01-2019,10:00,15.459,R,ugm-3 (Ref.eq),8.70894,R,ugm-3,18.72136,R,ugm-3,32.07488,R,ugm-3
08-01-2019,11:00,16.425,R,ugm-3 (Ref.eq),11.43048,R,ugm-3,25.34535,R,ugm-3,42.87184,R,ugm-3
08-01-2019,12:00,14.493,R,ugm-3 (Ref.eq),7.65434,R,ugm-3,14.49223,R,ugm-3,26.22872,R,ugm-3
08-01-2019,13:00,13.527,R,ugm-3 (Ref.eq),12.79125,R,ugm-3,23.15353,R,ugm-3,42.76651,R,ugm-3
08-01-2019,14:00,10.628,R,ugm-3 (Ref.eq),7.72238,R,ugm-3,13.12387,R,ugm-3,24.96469,R,ugm-3
08-01-2019,15:00,16.425,R,ugm-3 (Ref.eq),7.75640,R,ugm-3,16.91648,R,ugm-3,28.80946,R,ugm-3
08-01-2019,16:00,21.256,R,ugm-3 (Ref.eq),24.97015,R,ugm-3,41.92650,R,ugm-3,80.21353,R,ugm-3
08-01-2019,17:00,22.223,R,ugm-3 (Ref.eq),31.84205,R,ugm-3,47.87486,R,ugm-3,96.69865,R,ugm-3
08-01-2019,18:00,12.561,R,ugm-3 (Ref.eq),39.83658,R,ugm-3,46.20304,R,ugm-3,107.28494,R,ugm-3
08-01-2019,19:00,11.594,R,ugm-3 (Ref.eq),22.55479,R,ugm-3,40.52121,R,ugm-3,75.10473,R,ugm-3
08-01-2019,20:00,13.527,R,ugm-3 (Ref.eq),15.00250,R,ugm-3,36.66945,R,ugm-3,59.67297,R,ugm-3
08-01-2019,21:00,7.730,R,ugm-3 (Ref.eq),2.72154,R,ugm-3,18.52698,R,ugm-3,22.69996,R,ugm-3
08-01-2019,22:00,1.932,R,ugm-3 (Ref.eq),2.31331,R,ugm-3,9.67267,R,ugm-3,13.21970,R,ugm-3
08-01-2019,23:00,2.899,R,ugm-3 (Ref.eq),4.55859,R,ugm-3,14.13018,R,ugm-3,21.11991,R,ugm-3
08-01-2019,24:00,9.662,R,ugm-3 (Ref.eq),3.91222,R,ugm-3,13.48855,R,ugm-3,19.48720,R,ugm-3
09-01-2019,01:00,6.763,R,ugm-3 (Ref.eq),0.63511,R,ugm-3,4.21910,R,ugm-3,5.19292,R,ugm-3
09-01-2019,02:00,6.763,R,ugm-3 (Ref.eq),0.58975,R,ugm-3,2.95534,R,ugm-3,3.85961,R,ugm-3
09-01-2019,03:00,5.797,R,ugm-3 (Ref.eq),0.34024,R,ugm-3,2.42564,R,ugm-3,2.94734,R,ugm-3
09-01-2019,04:00,2.899,R,ugm-3 (Ref.eq),0.34024,R,ugm-3,2.58354,R,ugm-3,3.10523,R,ugm-3
09-01-2019,05:00,0.966,R,ugm-3 (Ref.eq),0.54438,R,ugm-3,3.42840,R,ugm-3,4.26311,R,ugm-3
09-01-2019,06:00,6.763,R,ugm-3 (Ref.eq),0.51036,R,ugm-3,4.21741,R,ugm-3,4.99994,R,ugm-3
09-01-2019,07:00,5.797,R,ugm-3 (Ref.eq),5.85209,R,ugm-3,16.13189,R,ugm-3,25.10497,R,ugm-3
09-01-2019,08:00,5.797,R,ugm-3 (Ref.eq),17.93054,R,ugm-3,33.82197,R,ugm-3,61.31507,R,ugm-3
09-01-2019,09:00,6.763,R,ugm-3 (Ref.eq),9.45861,R,ugm-3,33.12802,R,ugm-3,47.63102,R,ugm-3
09-01-2019,10:00,6.763,R,ugm-3 (Ref.eq),11.09175,R,ugm-3,30.09759,R,ugm-3,47.10471,R,ugm-3
09-01-2019,11:00,6.763,R,ugm-3 (Ref.eq),6.90683,R,ugm-3,25.72504,R,ugm-3,36.31537,R,ugm-3
09-01-2019,12:00,5.797,R,ugm-3 (Ref.eq),9.05033,R,ugm-3,24.17521,R,ugm-3,38.05219,R,ugm-3
09-01-2019,13:00,5.797,R,ugm-3 (Ref.eq),5.98819,R,ugm-3,21.71262,R,ugm-3,30.89438,R,ugm-3
09-01-2019,14:00,6.763,R,ugm-3 (Ref.eq),9.79885,R,ugm-3,22.18540,R,ugm-3,37.21009,R,ugm-3
09-01-2019,15:00,6.763,R,ugm-3 (Ref.eq),11.67016,R,ugm-3,21.57923,R,ugm-3,39.47322,R,ugm-3
09-01-2019,16:00,11.594,R,ugm-3 (Ref.eq),25.07553,R,ugm-3,46.12935,R,ugm-3,84.57796,R,ugm-3
09-01-2019,17:00,8.696,R,ugm-3 (Ref.eq),16.43349,R,ugm-3,50.16987,R,ugm-3,75.36754,R,ugm-3
09-01-2019,18:00,9.662,R,ugm-3 (Ref.eq),19.80184,R,ugm-3,54.37345,R,ugm-3,84.73585,R,ugm-3
09-01-2019,19:00,12.561,R,ugm-3 (Ref.eq),13.84768,R,ugm-3,47.55585,R,ugm-3,68.78867,R,ugm-3
09-01-2019,20:00,15.459,R,ugm-3 (Ref.eq),6.12428,R,ugm-3,44.24052,R,ugm-3,53.63095,R,ugm-3
09-01-2019,21:00,12.561,R,ugm-3 (Ref.eq),5.92014,R,ugm-3,34.50102,R,ugm-3,43.57844,R,ugm-3
09-01-2019,22:00,11.594,R,ugm-3 (Ref.eq),5.17162,R,ugm-3,31.28037,R,ugm-3,39.21007,R,ugm-3
09-01-2019,23:00,15.459,R,ugm-3 (Ref.eq),9.66276,R,ugm-3,30.23609,R,ugm-3,45.05211,R,ugm-3
09-01-2019,24:00,13.527,R,ugm-3 (Ref.eq),5.54588,R,ugm-3,24.07501,R,ugm-3,32.57857,R,ugm-3
10-01-2019,01:00,11.594,R,ugm-3 (Ref.eq),1.67873,R,ugm-3,13.83526,R,ugm-3,16.40927,R,ugm-3
10-01-2019,02:00,6.763,R,ugm-3 (Ref.eq),1.19099,R,ugm-3,8.32445,R,ugm-3,10.15061,R,ugm-3
10-01-2019,03:00,9.662,R,ugm-3 (Ref.eq),1.49725,R,ugm-3,8.53858,R,ugm-3,10.83433,R,ugm-3
10-01-2019,04:00,9.662,R,ugm-3 (Ref.eq),0.54445,R,ugm-3,4.84532,R,ugm-3,5.68013,R,ugm-3
10-01-2019,05:00,4.831,R,ugm-3 (Ref.eq),0.54445,R,ugm-3,3.89863,R,ugm-3,4.73344,R,ugm-3
10-01-2019,06:00,3.865,R,ugm-3 (Ref.eq),1.39516,R,ugm-3,6.38098,R,ugm-3,8.52020,R,ugm-3
10-01-2019,07:00,10.628,R,ugm-3 (Ref.eq),4.90007,R,ugm-3,12.73528,R,ugm-3,20.24862,R,ugm-3
10-01-2019,08:00,11.594,R,ugm-3 (Ref.eq),7.92859,R,ugm-3,22.92307,R,ugm-3,35.08008,R,ugm-3
10-01-2019,09:00,14.493,R,ugm-3 (Ref.eq),35.42345,R,ugm-3,40.98480,R,ugm-3,95.29999,R,ugm-3
10-01-2019,10:00,12.561,R,ugm-3 (Ref.eq),32.29285,R,ugm-3,37.15960,R,ugm-3,86.67461,R,ugm-3
10-01-2019,11:00,8.696,R,ugm-3 (Ref.eq),7.55428,R,ugm-3,23.75998,R,ugm-3,35.34304,R,ugm-3
10-01-2019,12:00,12.561,R,ugm-3 (Ref.eq),10.58280,R,ugm-3,24.63867,R,ugm-3,40.86540,R,ugm-3
10-01-2019,13:00,8.696,R,ugm-3 (Ref.eq),10.07237,R,ugm-3,34.25707,R,ugm-3,49.70116,R,ugm-3
10-01-2019,14:00,8.696,R,ugm-3 (Ref.eq),41.17423,R,ugm-3,42.58063,R,ugm-3,105.71357,R,ugm-3
10-01-2019,15:00,12.561,R,ugm-3 (Ref.eq),27.18860,R,ugm-3,34.99318,R,ugm-3,76.68178,R,ugm-3
10-01-2019,16:00,16.425,R,ugm-3 (Ref.eq),24.39828,R,ugm-3,36.64192,R,ugm-3,74.05209,R,ugm-3
10-01-2019,17:00,11.594,R,ugm-3 (Ref.eq),20.99545,R,ugm-3,40.96542,R,ugm-3,73.15800,R,ugm-3
10-01-2019,18:00,15.459,R,ugm-3 (Ref.eq),15.99330,R,ugm-3,38.16912,R,ugm-3,62.69183,R,ugm-3
10-01-2019,19:00,17.392,R,ugm-3 (Ref.eq),9.97029,R,ugm-3,36.35957,R,ugm-3,51.64713,R,ugm-3
10-01-2019,20:00,20.290,R,ugm-3 (Ref.eq),9.49389,R,ugm-3,34.72331,R,ugm-3,49.28041,R,ugm-3
10-01-2019,21:00,17.392,R,ugm-3 (Ref.eq),7.00983,R,ugm-3,26.48817,R,ugm-3,37.23642,R,ugm-3
10-01-2019,22:00,13.527,R,ugm-3 (Ref.eq),10.88905,R,ugm-3,28.11362,R,ugm-3,44.80993,R,ugm-3
10-01-2019,23:00,11.594,R,ugm-3 (Ref.eq),6.60149,R,ugm-3,22.69640,R,ugm-3,32.81854,R,ugm-3
10-01-2019,24:00,15.459,R,ugm-3 (Ref.eq),8.43902,R,ugm-3,23.03453,R,ugm-3,35.97417,R,ugm-3
11-01-2019,01:00,13.527,R,ugm-3 (Ref.eq),2.94951,R,ugm-3,12.36569,R,ugm-3,16.88821,R,ugm-3
11-01-2019,02:00,7.730,R,ugm-3 (Ref.eq),1.17980,R,ugm-3,12.97694,R,ugm-3,14.78594,R,ugm-3
11-01-2019,03:00,5.797,R,ugm-3 (Ref.eq),1.19115,R,ugm-3,10.73464,R,ugm-3,12.56104,R,ugm-3
11-01-2019,04:00,6.763,R,ugm-3 (Ref.eq),0.78275,R,ugm-3,8.52278,R,ugm-3,9.72298,R,ugm-3
11-01-2019,05:00,7.730,R,ugm-3 (Ref.eq),0.78275,R,ugm-3,10.15203,R,ugm-3,11.35224,R,ugm-3
11-01-2019,06:00,6.763,R,ugm-3 (Ref.eq),1.56551,R,ugm-3,9.63506,R,ugm-3,12.03548,R,ugm-3
11-01-2019,07:00,5.797,R,ugm-3 (Ref.eq),5.47928,R,ugm-3,19.03314,R,ugm-3,27.43458,R,ugm-3
11-01-2019,08:00,5.797,R,ugm-3 (Ref.eq),19.29659,R,ugm-3,44.93766,R,ugm-3,74.52536,R,ugm-3
11-01-2019,09:00,3.865,R,ugm-3 (Ref.eq),15.31476,R,ugm-3,52.56720,R,ugm-3,76.04950,R,ugm-3
11-01-2019,10:00,2.899,R,ugm-3 (Ref.eq),12.31987,R,ugm-3,48.11955,R,ugm-3,67.00975,R,ugm-3
11-01-2019,11:00,7.730,R,ugm-3 (Ref.eq),16.09751,R,ugm-3,40.80311,R,ugm-3,65.48561,R,ugm-3
11-01-2019,12:00,9.662,R,ugm-3 (Ref.eq),23.24440,R,ugm-3,41.35461,R,ugm-3,76.99552,R,ugm-3
11-01-2019,13:00,13.527,R,ugm-3 (Ref.eq),26.06912,R,ugm-3,38.75780,R,ugm-3,78.72989,R,ugm-3
11-01-2019,14:00,14.493,R,ugm-3 (Ref.eq),16.23364,R,ugm-3,32.44809,R,ugm-3,57.33932,R,ugm-3
11-01-2019,15:00,45.411,R,ugm-3 (Ref.eq),73.06840,R,ugm-3,71.75402,R,ugm-3,183.79067,R,ugm-3
11-01-2019,16:00,24.155,R,ugm-3 (Ref.eq),48.59882,R,ugm-3,60.39581,R,ugm-3,134.91297,R,ugm-3
11-01-2019,17:00,19.324,R,ugm-3 (Ref.eq),27.53253,R,ugm-3,55.80224,R,ugm-3,98.01819,R,ugm-3
11-01-2019,18:00,18.358,R,ugm-3 (Ref.eq),37.50413,R,ugm-3,49.60495,R,ugm-3,107.11049,R,ugm-3
11-01-2019,19:00,17.392,R,ugm-3 (Ref.eq),40.83935,R,ugm-3,64.72535,R,ugm-3,127.34481,R,ugm-3
11-01-2019,20:00,14.493,R,ugm-3 (Ref.eq),32.94374,R,ugm-3,47.45260,R,ugm-3,97.96563,R,ugm-3